Regional Weather Roundup
Issued by NWS Boston, MA

Home | Current Version | Previous Version | Text Only | Print | Product List | Glossary On
Versions: 1 2 3 4 5 6 7 8 9 10 11 12 13 14 15 16 17 18 19 20 21 22 23 24 25 26 27 28 29 30 31 32 33 34 35 36 37 38 39 40 41 42 43 44 45 46 47 48 49 50
000
ASUS41 KBOX 041310
RWRBOX

REGIONAL WEATHER ROUNDUP
NATIONAL WEATHER SERVICE TAUNTON MA
900 AM EDT WED MAY 04 2016

NOTE:  "FAIR" INDICATES FEW OR NO CLOUDS BELOW 12,000 FEET WITH NO
SIGNIFICANT WEATHER AND/OR OBSTRUCTIONS TO VISIBILITY.  THE FOLLOWING
OBSERVATION LOCATIONS DO NOT REPORT PRESENT WEATHER...PROVINCETOWN...
SMITHFIELD...BLOCK ISLAND...KEENE...AND OXFORD.

MAZALL-041400-
EASTERN MASSACHUSETTS

CITY           SKY/WX    TMP DP  RH WIND       PRES   REMARKS
BOSTON         CLOUDY    47  43  86 E12       29.89F
BEVERLY        CLOUDY    47  42  83 NE8       29.89S
LAWRENCE       CLOUDY    48  42  80 VRB7      29.92R
BEDFORD        CLOUDY    47  43  86 E8        29.87F
BLUE HILL        N/A     46  42  86 E12       29.85F
NORWOOD        CLOUDY    49  42  77 E12       29.87S
MARSHFIELD     CLOUDY    48  45  87 NE12      29.89F
PLYMOUTH       CLOUDY    47  44  90 E13       29.86F
TAUNTON        CLOUDY    50  42  74 E8        29.85F
NEW BEDFORD    CLOUDY    49  44  83 E10       29.84F
$$

MAZALL-041400-
CAPE COD AND THE ISLANDS

CITY           SKY/WX    TMP DP  RH WIND       PRES   REMARKS
FALMOUTH       CLOUDY    50  43  76 E13G18    29.85F
HYANNIS        CLOUDY    48  42  80 E8        29.84F
CHATHAM        CLOUDY    47  44  90 E14       29.87S
PROVINCETOWN   CLOUDY    48  44  86 NE10      29.89S
NANTUCKET      CLOUDY    49  43  80 NE16G24   29.84S
MARTHAS VNYRD  CLOUDY    50  44  80 E18G24    29.83F
$$

MAZALL-041400-
CENTRAL AND WESTERN MASSACHUSETTS

CITY           SKY/WX    TMP DP  RH WIND       PRES   REMARKS
WORCESTER      CLOUDY    44  40  85 E10       29.85F
FITCHBURG      CLOUDY    48  41  76 E7        29.89S
ORANGE         CLOUDY    46  41  82 SE5       29.86F
SPRINGFIELD    CLOUDY    48  43  84 NE6       29.84F
WESTFIELD      CLOUDY    48  43  82 NE6       29.84F
NORTH ADAMS    CLOUDY    48  40  73 E8        29.85S
PITTSFIELD     CLOUDY    45  41  86 NE7       29.83S
$$

RIZALL-041400-
RHODE ISLAND

CITY           SKY/WX    TMP DP  RH WIND       PRES   REMARKS
PROVIDENCE     CLOUDY    48  42  80 NE12      29.85F
NEWPORT        CLOUDY    49  43  80 NE9       29.83F
BLOCK ISLAND   CLOUDY    48  44  86 E13G22    29.83F
SMITHFIELD       N/A     46  41  81 E10       29.85F
WESTERLY       CLOUDY    50  42  74 NE9       29.83F
$$

CTZALL-041400-
CONNECTICUT

CITY           SKY/WX    TMP DP  RH WIND       PRES   REMARKS
BRADLEY INTL   CLOUDY    49  42  77 N7        29.84F
HARTFORD       CLOUDY    51  42  71 NE7       29.84F
BRIDGEPORT     CLOUDY    51  43  74 E12       29.81F
DANBURY        CLOUDY    48  44  86 E7        29.82F
GROTON         CLOUDY    50  48  93 NE12      29.82F
NEW HAVEN      CLOUDY    50  42  74 NE6       29.82F
CHESTER        CLOUDY    48  43  81 VRB6      29.82F
MERIDEN        CLOUDY    51  41  68 NE8       29.83S
WILLIMANTIC    CLOUDY    50  41  71 NE8       29.84F
OXFORD         CLOUDY    46  39  76 E6        29.82F
$$

MEZ002-015-021-024-NHZ003-005-008-011-012-014-VTZ005-008-041400-
NORTHERN NEW ENGLAND

CITY           SKY/WX    TMP DP  RH WIND       PRES   REMARKS
PORTLAND ME    PTSUNNY   49  43  80 E6        29.93R
BANGOR ME      PTSUNNY   51  40  65 NE8       29.94S
CONCORD NH     CLOUDY    48  40  73 E5        29.89F
MANCHESTER NH  CLOUDY    48  40  73 E5        29.88F
NASHUA NH      CLOUDY    48  42  80 E3        29.90S
PORTSMOUTH NH  CLOUDY    49  42  78 E7        29.89F
JAFFREY NH     CLOUDY    44  39  82 VRB3      29.87S
KEENE NH       CLOUDY    48  41  76 S5        29.88S
BURLINGTON VT  CLOUDY    50  41  71 S7        29.84R
MT. WASHINGTON PTSUNNY   34  28  80 S14         N/A  WCI  24
$$

NYZ052-076-041400-
EASTERN NEW YORK

CITY           SKY/WX    TMP DP  RH WIND       PRES   REMARKS
ALBANY         LGT RAIN  51  46  83 SE8       29.83R
NEW YORK CITY  CLOUDY    51  47  86 NE14      29.80F
$$

ANZALL-041400-
MARINE OBSERVATIONS

STATION/POSITION TIME  TEMP    WIND        PRES    VSBY  WAVE
                       AIR SEA DIR/SP/G                  HT/PER
                 (UTC) (F)     (DEG/KT/KT) (MB)    (MI)  (FT/S)
BOSTON BUOY      1250   47 47   60/  8/ 10 1011.4R         2/ 8
BUZZARDS BAY     1300   47      50/ 17/ 18 1010.6F
NANTUCKET SOUND  1250   47 50   50/ 16/ 17 1010.6R         2/ 3
MASS BAY-STELLWA 1204   45 46                N/A    1 7/8  2/ 8
ISLE OF SHOALS   1300   46      70/  8/  8 1012.6S
S OF BLOCK IS    NOT AVBL
$$

......................KEY.........................
  SKY/WX - SKY CONDITION/PRESENT WEATHER
  TMP    - TEMPERATURE IN FAHRENHEIT
  DWPT   - DEWPOINT IN FAHRENHEIT
  RH     - RELATIVE HUMIDITY IN PERCENT
  WIND   - DIRECTION AND SPEED IN MPH
  PRES   - MEAN SEA LEVEL PRESSURE IN INCHES OF HG
  WCI    - WIND CHILL INDEX
  VSB    - VISIBILITY IN MILES
  HX     - HEAT INDEX
  TC     - TEMPERATURE IN CELSIUS
  VRB    - VARIABLE WIND DIRECTION
  N/A    - NOT AVAILABLE



USA.gov is the U.S. government's official web portal to all federal, state and local government web resources and services.